H1 CPF  2  HTS 2024  8 12 12  225  1 etalon1    NONE
H2  8900103 0525    19751 2024 08 12  0  0  0 2024 08 17  0  0  0   900 1 1  0 0 0 1
H5  0.5580
H9
10 0 60535   16200.00000  0     -14430081.018     -12122386.248      17166719.303
10 0 60535   17100.00000  0     -15391280.291     -13849620.191      14858821.852
10 0 60535   18000.00000  0     -16323559.585     -15241887.667      12261528.596
10 0 60535   18900.00000  0     -17167528.383     -16285463.295       9425210.330
10 0 60535   19800.00000  0     -17864184.637     -16979686.455       6405004.684
10 0 60535   20700.00000  0     -18357533.699     -17336775.473       3259743.032
10 0 60535   21600.00000  0     -18597104.250     -17381105.045         50795.604
10 0 60535   22500.00000  0     -18540252.100     -17147976.452      -3159141.768
10 0 60535   23400.00000  0     -18154151.087     -16681932.484      -6307293.878
10 0 60535   24300.00000  0     -17417383.346     -16034689.195      -9332058.714
10 0 60535   25200.00000  0     -16321058.419     -15262773.782     -12174239.169
10 0 60535   26100.00000  0     -14869411.114     -14424971.027     -14778227.021
10 0 60535   27000.00000  0     -13079850.915     -13579689.321     -17093113.361
10 0 60535   27900.00000  0     -10982459.799     -12782360.726     -19073701.511
10 0 60535   28800.00000  0      -8618959.524     -12082987.802     -20681400.952
10 0 60535   29700.00000  0      -6041192.522     -11523943.060     -21884983.857
10 0 60535   30600.00000  0      -3309181.493     -11138115.357     -22661189.268
10 0 60535   31500.00000  0       -488850.675     -10947481.848     -22995163.675
10 0 60535   32400.00000  0       2350494.218     -10962165.129     -22880730.610
10 0 60535   33300.00000  0       5138820.776     -11180013.850     -22320485.707
10 0 60535   34200.00000  0       7808047.810     -11586722.259     -21325717.441
10 0 60535   35100.00000  0      10294634.766     -12156481.043     -19916157.297
10 0 60535   36000.00000  0      12541975.577     -12853129.271     -18119566.487
10 0 60535   36900.00000  0      14502498.986     -13631756.330     -15971169.322
10 0 60535   37800.00000  0      16139390.328     -14440684.207     -13512946.099
10 0 60535   38700.00000  0      17427866.180     -15223745.026     -10792800.707
10 0 60535   39600.00000  0      18355952.243     -15922757.090      -7863620.179
10 0 60535   40500.00000  0      18924735.664     -16480095.070      -4782245.039
10 0 60535   41400.00000  0      19148084.735     -16841246.736      -1608370.554
10 0 60535   42300.00000  0      19051850.757     -16957249.830       1596600.176
10 0 60535   43200.00000  0      18672587.867     -16786908.152       4770729.830
10 0 60535   44100.00000  0      18055846.013     -16298695.432       7852725.679
10 0 60535   45000.00000  0      17254109.259     -15472268.644      10783102.340
10 0 60535   45900.00000  0      16324465.629     -14299528.542      13505307.790
10 0 60535   46800.00000  0      15326105.150     -12785183.628      15966792.882
10 0 60535   47700.00000  0      14317749.372     -10946793.884      18120005.706
10 0 60535   48600.00000  0      13355118.132      -8814291.460      19923293.544
10 0 60535   49500.00000  0      12488537.688      -6428996.525      21341696.669
10 0 60535   50400.00000  0      11760788.635      -3842166.655      22347619.952
10 0 60535   51300.00000  0      11205282.423      -1113136.949      22921370.072
10 0 60535   52200.00000  0      10844642.290       1692875.410      23051548.077
10 0 60535   53100.00000  0      10689748.250       4507214.553      22735289.150
10 0 60535   54000.00000  0      10739287.291       7260379.192      21978343.702
10 0 60535   54900.00000  0      10979829.474       9884660.902      20794996.329
10 0 60535   55800.00000  0      11386429.211      12316719.804      19207821.834
10 0 60535   56700.00000  0      11923729.204      14499991.660      17247280.301
10 0 60535   57600.00000  0      12547523.349      16386826.221      14951156.287
10 0 60535   58500.00000  0      13206715.157      17940266.818      12363850.328
10 0 60535   59400.00000  0      13845590.785      19135395.280       9535534.265
10 0 60535   60300.00000  0      14406311.453      19960183.799       6521185.170
10 0 60535   61200.00000  0      14831519.577      20415815.846       3379515.789
10 0 60535   62100.00000  0      15066946.958      20516460.643        171822.366
10 0 60535   63000.00000  0      15063912.231      20288509.267      -3039226.823
10 0 60535   63900.00000  0      14781598.745      19769303.920      -6190836.903
10 0 60535   64800.00000  0      14189012.909      19005414.275      -9221339.187
10 0 60535   65700.00000  0      13266536.605      18050534.927     -12071424.165
10 0 60535   66600.00000  0      12007004.830      16963094.846     -14685327.757
10 0 60535   67500.00000  0      10416260.495      15803682.506     -17011944.995
10 0 60535   68400.00000  0       8513161.288      14632398.408     -19005847.050
10 0 60535   69300.00000  0       6329037.588      13506249.670     -20628180.043
10 0 60535   70200.00000  0       3906624.383      12476699.050     -21847427.080
10 0 60535   71100.00000  0       1298512.968      11587473.489     -22640018.416
10 0 60535   72000.00000  0      -1434811.244      10872725.281     -22990778.355
10 0 60535   72900.00000  0      -4227261.068      10355623.055     -22893201.361
10 0 60535   73800.00000  0      -7009672.702      10047430.611     -22349553.682
10 0 60535   74700.00000  0      -9712457.178       9947110.251     -21370800.577
10 0 60535   75600.00000  0     -12268267.020      10041464.538     -19976362.779
10 0 60535   76500.00000  0     -14614567.247      10305807.432     -18193709.194
10 0 60535   77400.00000  0     -16696004.727      10705133.448     -16057795.840
10 0 60535   78300.00000  0     -18466479.076      11195732.794     -13610363.774
10 0 60535   79200.00000  0     -19890831.423      11727182.172     -10899111.136
10 0 60535   80100.00000  0     -20946083.736      12244625.782      -7976756.444
10 0 60535   81000.00000  0     -21622180.396      12691249.644      -4900011.930
10 0 60535   81900.00000  0     -21922204.414      13010844.971      -1728486.988
10 0 60535   82800.00000  0     -21862062.368      13150353.299       1476457.360
10 0 60535   83700.00000  0     -21469653.810      13062287.450       4652881.528
10 0 60535   84600.00000  0     -20783561.750      12706927.968       7739446.450
10 0 60535   85500.00000  0     -19851320.051      12054204.302      10676577.383
10 0 60536       0.00000  0     -18727330.383      11085183.077      13407591.728
10 0 60536     900.00000  0     -17470515.248       9793101.979      15879771.058
10 0 60536    1800.00000  0     -16141803.888       8183906.160      18045358.646
10 0 60536    2700.00000  0     -14801554.364       6276264.172      19862465.181
10 0 60536    3600.00000  0     -13507017.506       4101061.285      21295866.871
10 0 60536    4500.00000  0     -12309946.671       1700389.025      22317681.839
10 0 60536    5400.00000  0     -11254451.469       -873930.019      22907912.525
10 0 60536    6300.00000  0     -10375183.972      -3562224.276      23054843.790
10 0 60536    7200.00000  0      -9695932.775      -6299187.675      22755288.485
10 0 60536    8100.00000  0      -9228684.054      -9016338.158      22014674.530
10 0 60536    9000.00000  0      -8973190.102     -11644621.297      20846969.946
10 0 60536    9900.00000  0      -8917065.227     -14117053.329      19274444.943
10 0 60536   10800.00000  0      -9036407.282     -16371295.263      17327272.950
10 0 60536   11700.00000  0      -9296921.171     -18352051.438      15042975.524
10 0 60536   12600.00000  0      -9655499.346     -20013192.045      12465719.232
10 0 60536   13500.00000  0     -10062194.499     -21319509.601       9645475.876
10 0 60536   14400.00000  0     -10462502.210     -22248033.836       6637060.705
10 0 60536   15300.00000  0     -10799857.182     -22788847.485       3499066.427
10 0 60536   16200.00000  0     -11018236.434     -22945366.361        292713.752
10 0 60536   17100.00000  0     -11064757.258     -22734069.916      -2919358.273
10 0 60536   18000.00000  0     -10892157.047     -22183692.315      -6074336.899
10 0 60536   18900.00000  0     -10461046.564     -21333907.685      -9110488.681
10 0 60536   19800.00000  0      -9741837.603     -20233565.561     -11968393.715
10 0 60536   20700.00000  0      -8716260.016     -18938552.474     -14592134.129
10 0 60536   21600.00000  0      -7378401.000     -17509372.177     -16930410.941
10 0 60536   22500.00000  0      -5735220.529     -16008549.315     -18937565.116
10 0 60536   23400.00000  0      -3806519.897     -14497968.859     -20574481.155
10 0 60536   24300.00000  0      -1624364.299     -13036266.023     -21809354.545
10 0 60536   25200.00000  0        768015.810     -11676378.571     -22618307.839
10 0 60536   26100.00000  0       3317797.389     -10463365.640     -22985843.849
10 0 60536   27000.00000  0       5964544.148      -9432584.958     -22905128.254
10 0 60536   27900.00000  0       8642508.153      -8608304.089     -22378097.823
10 0 60536   28800.00000  0      11283156.205      -8002802.172     -21415394.161
10 0 60536   29700.00000  0      13817814.604      -7615997.162     -20036126.503
10 0 60536   30600.00000  0      16180321.744      -7435610.984     -18267470.415
10 0 60536   31500.00000  0      18309578.463      -7437862.211     -16144112.298
10 0 60536   32400.00000  0      20151891.115      -7588653.755     -13707552.355
10 0 60536   33300.00000  0      21663011.724      -7845202.629     -11005281.067
10 0 60536   34200.00000  0      22809792.740      -8158040.845      -8089846.244
10 0 60536   35100.00000  0      23571390.363      -8473301.588      -5017829.398
10 0 60536   36000.00000  0      23939969.336      -8735193.658      -1848751.458
10 0 60536   36900.00000  0      23920882.786      -8888559.996       1356071.287
99